Tracking 30995 objects as of 5-Jul-2025
HD Live streaming from Space Station
objects crossing your sky now

STARLINK-31911

Track STARLINK-31911 now!
10-day predictions
STARLINK-31911 is classified as:


NORAD ID: 60587
Int'l Code: 2024-150E
Perigee: 481.5 km
Apogee: 483.2 km
Inclination: 53.2 °
Period: 94.1 minutes
Semi major axis: 6853 km
RCS: Unknown
Launch date: August 20, 2024
Source: United States (US)
Launch site: AIR FORCE EASTERN TEST RANGE (AFETR)
Your satellite tracking list
Your tracking list is empty




NASA's NSSDC Master Catalog

Two Line Element Set (TLE):
1 60587U 24150E   25185.84711816 -.00000353  00000-0  19912-6 0  9995
2 60587  53.1601  18.3706 0001233  92.9317 267.1825 15.30193711 50017
Source of the keplerian elements: AFSPC